Location: Boiro
(42.6475°N, 8.8834°W)
Time: 17:10:52
(UTC+01:00)

Transit 2A - Pass Details

Date: 09 December 2021
Orbit: 591 x 967 km, 66.7° (Epoch: 20 January)

Event Time Altitude Azimuth Distance (km) Brightness Sun altitude
Rises 00:08:39 0° 201° (SSW) 3,270 - -64.3°
Reaches altitude 10° 00:10:58 10° 199° (SSW) 2,400 - -64.6°
Maximum altitude 00:16:31 70° 116° (ESE) 934 - -65.3°
Drops below altitude 10° 00:22:38 10° 35° (NE) 2,639 - -66.0°
Sets 00:25:17 0° 33° (NNE) 3,619 - -66.3°
